Location: Bjelajci
(45.0103°N, 16.1758°E)
Time: 08:19:29
(UTC+00:00)

ARIANE 5 R/B - Pass Details

Date: 14 July 2020
Orbit: 749 x 794 km, 98.6° (Epoch: 07 August)

Event Time Altitude Azimuth Distance (km) Brightness Sun altitude
Rises 01:11:31 0° 21° (NNE) 3,237 7.4 -17.0°
Reaches altitude 10° 01:13:58 10° 29° (NNE) 2,313 6.3 -16.8°
Maximum altitude 01:18:45 39° 98° (E) 1,143 3.6 -16.4°
Enters shadow 01:23:10 12° 165° (SSE) 2,191 4.5 -15.9°
